StationID,Date,MaxTemp,MinTemp,Precipitation,Snowfall,SnowDepth
"CA00112C991","1984-12-01",,,0.00,0.00,
"CA00112C991","1984-12-02",,,0.00,0.00,
"CA00112C991","1984-12-03",,,0.00,0.00,
"CA00112C991","1984-12-04",,,0.00,0.00,
"CA00112C991","1984-12-05",,,0.00,0.00,
"CA00112C991","1984-12-06",,,0.00,0.00,
"CA00112C991","1984-12-09",,,0.00,0.00,
"CA00112C991","1984-12-10",,,0.00,0.00,
"CA00112C991","1984-12-11",26.60,,10.00,10.00,100.00
"CA00112C991","1984-12-12",30.20,20.30,10.00,10.00,110.00
"CA00112C991","1984-12-13",31.10,20.30,30.00,30.00,120.00
"CA00112C991","1984-12-14",35.60,24.80,4.00,4.00,120.00
"CA00112C991","1984-12-15",33.80,28.40,0.00,0.00,110.00
"CA00112C991","1984-12-16",19.40,14.00,0.00,0.00,110.00
"CA00112C991","1984-12-17",10.40,4.10,0.00,0.00,110.00
"CA00112C991","1984-12-18",12.20,-7.60,0.00,0.00,110.00
"CA00112C991","1984-12-19",15.80,-2.20,2.00,2.00,110.00
"CA00112C991","1984-12-20",21.20,13.10,10.00,10.00,110.00
"CA00112C991","1984-12-21",21.20,14.90,0.00,0.00,120.00
"CA00112C991","1984-12-22",32.00,18.50,76.00,76.00,120.00
"CA00112C991","1984-12-23",33.80,23.00,0.00,0.00,170.00
"CA00112C991","1984-12-24",25.70,10.40,0.00,0.00,140.00
"CA00112C991","1984-12-25",30.20,20.30,50.00,50.00,140.00
"CA00112C991","1984-12-26",29.30,25.70,80.00,80.00,190.00
"CA00112C991","1984-12-27",23.00,19.40,0.00,0.00,270.00
"CA00112C991","1984-12-28",14.90,10.40,30.00,30.00,190.00
"CA00112C991","1984-12-29",4.10,1.40,100.00,100.00,220.00
"CA00112C991","1984-12-30",5.00,-1.30,0.00,0.00,300.00
"CA00112C991","1984-12-31",9.50,-14.80,0.00,0.00,300.00
"CA00112C991","1985-01-01",14.00,-0.40,0.00,0.00,240.00
"CA00112C991","1985-01-02",18.50,8.60,0.00,0.00,240.00
"CA00112C991","1985-01-03",18.50,9.50,0.00,0.00,220.00
"CA00112C991","1985-01-04",24.80,9.50,0.00,0.00,220.00
"CA00112C991","1985-01-05",30.20,18.50,0.00,0.00,220.00
"CA00112C991","1985-01-06",25.70,21.20,0.00,0.00,200.00
"CA00112C991","1985-01-07",27.50,23.00,0.00,0.00,200.00
"CA00112C991","1985-01-08",26.60,22.10,0.00,0.00,150.00
"CA00112C991","1985-01-09",25.70,23.00,0.00,0.00,150.00
"CA00112C991","1985-01-10",27.50,23.00,0.00,0.00,150.00
"CA00112C991","1985-01-11",26.60,23.00,0.00,0.00,150.00
"CA00112C991","1985-01-12",32.90,23.90,0.00,0.00,150.00
"CA00112C991","1985-01-13",28.40,24.80,0.00,0.00,130.00
"CA00112C991","1985-01-14",32.90,24.80,0.00,0.00,130.00
"CA00112C991","1985-01-15",27.50,19.40,0.00,0.00,130.00
"CA00112C991","1985-01-16",30.20,23.90,0.00,0.00,130.00
"CA00112C991","1985-01-17",32.90,28.40,0.00,0.00,130.00
"CA00112C991","1985-01-18",35.60,26.60,0.00,0.00,120.00
"CA00112C991","1985-01-19",32.00,25.70,,,120.00
"CA00112C991","1985-01-20",35.60,30.20,0.00,0.00,130.00
"CA00112C991","1985-01-21",38.30,32.90,0.00,0.00,110.00
"CA00112C991","1985-01-22",34.70,32.00,0.00,0.00,110.00
"CA00112C991","1985-01-23",33.80,31.10,0.00,0.00,110.00
"CA00112C991","1985-01-24",33.80,30.20,0.00,0.00,90.00
"CA00112C991","1985-01-25",33.80,30.20,0.00,0.00,90.00
"CA00112C991","1985-01-26",32.00,28.40,0.00,0.00,90.00
"CA00112C991","1985-01-27",30.20,27.50,0.00,0.00,90.00
"CA00112C991","1985-01-28",30.20,24.80,10.00,10.00,90.00
"CA00112C991","1985-01-29",27.50,16.70,0.00,0.00,100.00
"CA00112C991","1985-01-30",21.20,6.80,0.00,0.00,90.00
"CA00112C991","1985-01-31",24.80,5.90,10.00,10.00,80.00
"CA00112C991","1985-02-01",26.60,10.40,3.00,3.00,110.00
"CA00112C991","1985-02-02",23.00,8.60,0.00,0.00,110.00
"CA00112C991","1985-02-03",20.30,8.60,0.00,0.00,110.00
"CA00112C991","1985-02-04",17.60,3.20,10.00,10.00,110.00
"CA00112C991","1985-02-05",23.00,12.20,6.00,6.00,120.00
"CA00112C991","1985-02-06",19.40,12.20,70.00,70.00,100.00
"CA00112C991","1985-02-07",30.20,15.80,20.00,20.00,150.00
"CA00112C991","1985-02-08",21.20,17.60,10.00,10.00,160.00
"CA00112C991","1985-02-09",19.40,10.40,18.00,18.00,160.00
"CA00112C991","1985-02-10",26.60,9.50,30.00,30.00,170.00
"CA00112C991","1985-02-11",39.20,21.20,0.00,0.00,190.00
"CA00112C991","1985-02-12",44.60,24.80,6.00,2.00,120.00
"CA00112C991","1985-02-13",37.40,23.00,0.00,0.00,120.00
"CA00112C991","1985-02-14",44.60,24.80,0.00,0.00,120.00
"CA00112C991","1985-02-15",46.40,24.80,0.00,0.00,120.00
"CA00112C991","1985-02-16",41.90,24.80,0.00,0.00,120.00
"CA00112C991","1985-02-17",37.40,24.80,0.00,0.00,110.00
"CA00112C991","1985-02-18",41.00,24.80,0.00,0.00,110.00
"CA00112C991","1985-02-19",37.40,28.40,6.00,6.00,100.00
"CA00112C991","1985-02-20",45.50,23.00,0.00,0.00,110.00
"CA00112C991","1985-02-21",37.40,32.90,0.00,0.00,110.00
"CA00112C991","1985-02-22",41.00,28.40,0.00,0.00,110.00
"CA00112C991","1985-02-23",42.80,32.90,4.00,0.00,100.00
"CA00112C991","1985-02-24",42.80,28.40,30.00,0.00,100.00
"CA00112C991","1985-02-25",44.60,28.40,0.00,0.00,80.00
"CA00112C991","1985-02-26",44.60,24.80,0.00,0.00,80.00
"CA00112C991","1985-02-27",43.70,28.40,0.00,0.00,70.00
"CA00112C991","1985-02-28",45.50,33.80,38.00,0.00,50.00
"CA00112C991","1985-03-01",44.60,30.20,0.00,0.00,40.00
"CA00112C991","1985-03-02",43.70,21.20,0.00,0.00,40.00
"CA00112C991","1985-03-03",41.00,20.30,0.00,0.00,0.00
"CA00112C991","1985-03-04",42.80,28.40,0.00,0.00,0.00
"CA00112C991","1985-03-05",44.60,27.50,0.00,0.00,0.00
"CA00112C991","1985-03-06",46.40,26.60,0.00,0.00,0.00
"CA00112C991","1985-03-07",45.50,23.00,0.00,0.00,0.00
"CA00112C991","1985-03-08",47.30,23.00,0.00,0.00,0.00
"CA00112C991","1985-03-09",50.00,23.90,0.00,0.00,0.00
"CA00112C991","1985-03-10",50.00,22.10,0.00,0.00,0.00
"CA00112C991","1985-03-11",44.60,21.20,0.00,0.00,0.00
"CA00112C991","1985-03-12",50.00,24.80,0.00,0.00,0.00
"CA00112C991","1985-03-13",51.80,24.80,0.00,0.00,0.00
"CA00112C991","1985-03-14",59.00,33.80,0.00,0.00,0.00
"CA00112C991","1985-03-15",55.40,26.60,0.00,0.00,0.00
"CA00112C991","1985-03-16",59.00,25.70,0.00,0.00,0.00
"CA00112C991","1985-03-17",56.30,28.40,0.00,0.00,0.00
"CA00112C991","1985-03-18",57.20,28.40,0.00,0.00,0.00
"CA00112C991","1985-03-19",54.50,31.10,0.00,0.00,0.00
"CA00112C991","1985-03-20",55.40,32.90,36.00,36.00,0.00
"CA00112C991","1985-03-21",48.20,32.00,0.00,0.00,30.00
"CA00112C991","1985-03-22",41.00,24.80,0.00,0.00,0.00
"CA00112C991","1985-03-23",50.00,26.60,10.00,10.00,0.00
"CA00112C991","1985-03-24",43.70,24.80,0.00,0.00,0.00
"CA00112C991","1985-03-25",48.20,26.60,0.00,0.00,0.00
"CA00112C991","1985-03-26",44.60,23.00,0.00,0.00,0.00
"CA00112C991","1985-03-27",46.40,32.00,2.00,0.00,0.00
"CA00112C991","1985-03-28",50.00,31.10,,0.00,0.00
"CA00112C991","1985-03-29",50.00,30.20,20.00,20.00,0.00
"CA00112C991","1985-03-30",51.80,32.00,0.00,0.00,20.00
"CA00112C991","1985-03-31",53.60,37.40,0.00,0.00,0.00
"CA00112C991","1985-04-01",64.40,39.20,0.00,0.00,0.00
"CA00112C991","1985-04-02",59.00,46.40,16.00,0.00,0.00
"CA00112C991","1985-04-03",50.00,32.00,0.00,0.00,0.00
"CA00112C991","1985-04-04",50.00,32.90,0.00,0.00,0.00
"CA00112C991","1985-04-05",62.60,35.60,0.00,0.00,0.00
"CA00112C991","1985-04-06",59.00,28.40,0.00,0.00,0.00
"CA00112C991","1985-04-07",60.80,30.20,0.00,0.00,0.00
"CA00112C991","1985-04-08",68.90,32.00,0.00,0.00,0.00
"CA00112C991","1985-04-09",73.40,35.60,0.00,0.00,0.00
"CA00112C991","1985-04-10",71.60,37.40,6.00,0.00,0.00
"CA00112C991","1985-04-11",64.40,41.00,0.00,0.00,0.00
"CA00112C991","1985-04-12",70.70,40.10,0.00,0.00,0.00
"CA00112C991","1985-04-13",64.40,42.80,0.00,0.00,0.00
"CA00112C991","1985-04-14",55.40,50.00,0.00,0.00,0.00
"CA00112C991","1985-04-15",61.70,37.40,28.00,0.00,0.00
"CA00112C991","1985-04-16",59.00,42.80,0.00,0.00,0.00
"CA00112C991","1985-04-17",59.00,35.60,0.00,0.00,0.00
"CA00112C991","1985-04-18",55.40,39.20,0.00,0.00,0.00
"CA00112C991","1985-04-19",50.00,33.80,0.00,0.00,0.00
"CA00112C991","1985-04-20",51.80,36.50,6.00,0.00,0.00
"CA00112C991","1985-04-21",59.00,32.00,0.00,0.00,0.00
"CA00112C991","1985-04-22",55.40,30.20,16.00,0.00,0.00
"CA00112C991","1985-04-23",53.60,38.30,0.00,0.00,0.00
"CA00112C991","1985-04-24",54.50,30.20,0.00,0.00,0.00
"CA00112C991","1985-04-25",59.00,30.20,0.00,0.00,0.00
"CA00112C991","1985-04-26",46.40,39.20,24.00,0.00,0.00
"CA00112C991","1985-04-27",62.60,37.40,0.00,0.00,0.00
"CA00112C991","1985-04-28",66.20,30.20,0.00,0.00,0.00
"CA00112C991","1985-04-29",63.50,35.60,0.00,0.00,0.00
"CA00112C991","1985-04-30",62.60,26.60,0.00,0.00,0.00
"CA00112C991","1985-05-01",70.70,34.70,0.00,0.00,0.00
"CA00112C991","1985-05-02",77.00,42.80,48.00,0.00,0.00
"CA00112C991","1985-05-03",62.60,46.40,0.00,0.00,0.00
"CA00112C991","1985-05-04",56.30,39.20,0.00,0.00,0.00
"CA00112C991","1985-05-05",60.80,32.90,0.00,0.00,0.00
"CA00112C991","1985-05-06",70.70,42.80,0.00,0.00,0.00
"CA00112C991","1985-05-07",68.00,41.00,0.00,0.00,0.00
"CA00112C991","1985-05-08",57.20,44.60,14.00,0.00,0.00
"CA00112C991","1985-05-09",64.40,32.00,0.00,0.00,0.00
"CA00112C991","1985-05-10",57.20,37.40,28.00,0.00,0.00
"CA00112C991","1985-05-11",53.60,35.60,0.00,0.00,0.00
"CA00112C991","1985-05-12",60.80,30.20,0.00,0.00,0.00
"CA00112C991","1985-05-13",57.20,33.80,76.00,0.00,0.00
"CA00112C991","1985-05-14",66.20,44.60,0.00,0.00,0.00
"CA00112C991","1985-05-15",71.60,35.60,0.00,0.00,0.00
"CA00112C991","1985-05-16",82.40,41.00,0.00,0.00,0.00
"CA00112C991","1985-05-17",84.20,46.40,0.00,0.00,0.00
"CA00112C991","1985-05-18",87.80,48.20,0.00,0.00,0.00
"CA00112C991","1985-05-19",82.40,53.60,0.00,0.00,0.00
"CA00112C991","1985-05-20",82.40,50.00,0.00,0.00,0.00
"CA00112C991","1985-05-21",82.40,50.00,0.00,0.00,0.00
"CA00112C991","1985-05-22",82.40,55.40,0.00,0.00,0.00
"CA00112C991","1985-05-23",82.40,55.40,70.00,0.00,0.00
"CA00112C991","1985-05-24",72.50,53.60,18.00,0.00,0.00
"CA00112C991","1985-05-25",68.00,51.80,6.00,0.00,0.00
"CA00112C991","1985-05-26",74.30,42.80,0.00,0.00,0.00
"CA00112C991","1985-05-27",77.00,46.40,0.00,0.00,0.00
"CA00112C991","1985-05-28",69.80,53.60,24.00,0.00,0.00
"CA00112C991","1985-05-29",69.80,50.00,24.00,0.00,0.00
"CA00112C991","1985-05-30",75.20,50.00,0.00,0.00,0.00
"CA00112C991","1985-05-31",80.60,48.20,0.00,0.00,0.00
"CA00112C991","1985-06-01",82.40,50.00,0.00,0.00,0.00
"CA00112C991","1985-06-02",77.00,57.20,6.00,0.00,0.00
"CA00112C991","1985-06-03",75.20,53.60,20.00,0.00,0.00
"CA00112C991","1985-06-04",75.20,55.40,18.00,0.00,0.00
"CA00112C991","1985-06-05",64.40,50.90,8.00,0.00,0.00
"CA00112C991","1985-06-06",58.10,40.10,97.00,0.00,0.00
"CA00112C991","1985-06-07",66.20,50.00,74.00,0.00,0.00
"CA00112C991","1985-06-08",62.60,49.10,0.00,0.00,0.00
"CA00112C991","1985-06-09",71.60,39.20,0.00,0.00,0.00
"CA00112C991","1985-06-10",75.20,42.80,0.00,0.00,0.00
"CA00112C991","1985-06-11",80.60,46.40,0.00,0.00,0.00
"CA00112C991","1985-06-12",75.20,59.00,0.00,0.00,0.00
"CA00112C991","1985-06-13",73.40,53.60,4.00,0.00,0.00
"CA00112C991","1985-06-14",71.60,51.80,22.00,0.00,0.00
"CA00112C991","1985-06-15",69.80,55.40,0.00,0.00,0.00
"CA00112C991","1985-06-16",73.40,42.80,0.00,0.00,0.00
"CA00112C991","1985-06-17",82.40,42.80,0.00,0.00,0.00
"CA00112C991","1985-06-18",89.60,50.00,0.00,0.00,0.00
"CA00112C991","1985-06-19",89.60,59.00,0.00,0.00,0.00
"CA00112C991","1985-06-20",77.00,59.00,0.00,0.00,0.00
"CA00112C991","1985-06-21",80.60,52.70,0.00,0.00,0.00
"CA00112C991","1985-06-22",77.00,51.80,0.00,0.00,0.00
"CA00112C991","1985-06-23",60.80,44.60,34.00,0.00,0.00
"CA00112C991","1985-06-24",60.80,43.70,0.00,0.00,0.00
"CA00112C991","1985-06-25",73.40,44.60,0.00,0.00,0.00
"CA00112C991","1985-06-26",82.40,45.50,0.00,0.00,0.00
"CA00112C991","1985-06-27",84.20,53.60,0.00,0.00,0.00
"CA00112C991","1985-06-28",86.00,50.00,0.00,0.00,0.00
"CA00112C991","1985-06-29",86.00,51.80,0.00,0.00,0.00
"CA00112C991","1985-06-30",77.00,50.90,0.00,0.00,0.00
"CA00112C991","1985-07-01",83.30,46.40,0.00,0.00,0.00
"CA00112C991","1985-07-02",94.10,50.00,0.00,0.00,0.00
"CA00112C991","1985-07-03",98.60,57.20,0.00,0.00,0.00
"CA00112C991","1985-07-04",95.00,59.00,0.00,0.00,0.00
"CA00112C991","1985-07-05",84.20,53.60,0.00,0.00,0.00
"CA00112C991","1985-07-06",78.80,50.00,0.00,0.00,0.00
"CA00112C991","1985-07-07",89.60,59.00,0.00,0.00,0.00
"CA00112C991","1985-07-08",95.90,59.00,0.00,0.00,0.00
"CA00112C991","1985-07-09",95.00,60.80,0.00,0.00,0.00
"CA00112C991","1985-07-10",89.60,59.00,0.00,0.00,0.00
"CA00112C991","1985-07-11",89.60,53.60,0.00,0.00,0.00
"CA00112C991","1985-07-12",82.40,55.40,0.00,0.00,0.00
"CA00112C991","1985-07-13",80.60,55.40,0.00,0.00,0.00
"CA00112C991","1985-07-14",86.00,50.00,0.00,0.00,0.00
"CA00112C991","1985-07-15",89.60,53.60,0.00,0.00,0.00
"CA00112C991","1985-07-16",84.20,57.20,42.00,0.00,0.00
"CA00112C991","1985-07-17",86.90,55.40,0.00,0.00,0.00
"CA00112C991","1985-07-18",93.20,51.80,0.00,0.00,0.00
"CA00112C991","1985-07-19",95.90,57.20,0.00,0.00,0.00
"CA00112C991","1985-07-20",95.00,57.20,0.00,0.00,0.00
"CA00112C991","1985-07-21",97.70,60.80,0.00,0.00,0.00
"CA00112C991","1985-07-22",89.60,62.60,150.00,0.00,0.00
"CA00112C991","1985-07-23",86.00,62.60,0.00,0.00,0.00
"CA00112C991","1985-07-24",82.40,57.20,0.00,0.00,0.00
"CA00112C991","1985-07-25",89.60,51.80,0.00,0.00,0.00
"CA00112C991","1985-07-26",84.20,53.60,0.00,0.00,0.00
"CA00112C991","1985-07-27",89.60,48.20,0.00,0.00,0.00
"CA00112C991","1985-07-28",91.40,52.70,0.00,0.00,0.00
"CA00112C991","1985-07-29",94.10,55.40,0.00,0.00,0.00
"CA00112C991","1985-07-30",93.20,58.10,33.00,0.00,0.00
"CA00112C991","1985-07-31",89.60,64.40,0.00,0.00,0.00
"CA00112C991","1985-08-01",77.00,62.60,,0.00,0.00
"CA00112C991","1985-08-02",80.60,57.20,0.00,0.00,0.00
"CA00112C991","1985-08-03",86.00,56.30,20.00,0.00,0.00
"CA00112C991","1985-08-04",82.40,59.00,0.00,0.00,0.00
"CA00112C991","1985-08-05",84.20,53.60,0.00,0.00,0.00
"CA00112C991","1985-08-06",87.80,52.70,0.00,0.00,0.00
"CA00112C991","1985-08-07",71.60,57.20,150.00,0.00,0.00
"CA00112C991","1985-08-08",64.40,50.00,4.00,0.00,0.00
"CA00112C991","1985-08-09",66.20,53.60,20.00,0.00,0.00
"CA00112C991","1985-08-10",73.40,48.20,0.00,0.00,0.00
"CA00112C991","1985-08-11",76.10,53.60,0.00,0.00,0.00
"CA00112C991","1985-08-12",77.00,51.80,0.00,0.00,0.00
"CA00112C991","1985-08-13",78.80,50.00,0.00,0.00,0.00
"CA00112C991","1985-08-14",84.20,49.10,10.00,0.00,0.00
"CA00112C991","1985-08-15",75.20,57.20,0.00,0.00,0.00
"CA00112C991","1985-08-16",80.60,46.40,0.00,0.00,0.00
"CA00112C991","1985-08-17",86.00,48.20,0.00,0.00,0.00
"CA00112C991","1985-08-18",89.60,51.80,0.00,0.00,0.00
"CA00112C991","1985-08-19",82.40,55.40,190.00,0.00,0.00
"CA00112C991","1985-08-20",60.80,54.50,68.00,0.00,0.00
"CA00112C991","1985-08-21",73.40,48.20,2.00,0.00,0.00
"CA00112C991","1985-08-22",80.60,45.50,0.00,0.00,0.00
"CA00112C991","1985-08-23",84.20,48.20,0.00,0.00,0.00
"CA00112C991","1985-08-24",86.00,54.50,0.00,0.00,0.00
"CA00112C991","1985-08-25",78.80,59.00,0.00,0.00,0.00
"CA00112C991","1985-08-26",79.70,44.60,0.00,0.00,0.00
"CA00112C991","1985-08-27",80.60,44.60,0.00,0.00,0.00
"CA00112C991","1985-08-28",86.00,53.60,0.00,0.00,0.00
"CA00112C991","1985-08-29",82.40,49.10,0.00,0.00,0.00
"CA00112C991","1985-08-30",80.60,55.40,0.00,0.00,0.00
"CA00112C991","1985-08-31",75.20,46.40,0.00,0.00,0.00
"CA00112C991","1985-09-01",75.20,46.40,0.00,0.00,0.00
"CA00112C991","1985-09-02",75.20,42.80,0.00,0.00,0.00
"CA00112C991","1985-09-03",77.00,57.20,0.00,0.00,0.00
"CA00112C991","1985-09-04",69.80,46.40,18.00,0.00,0.00
"CA00112C991","1985-09-05",60.80,51.80,190.00,0.00,0.00
"CA00112C991","1985-09-06",53.60,46.40,186.00,0.00,0.00
"CA00112C991","1985-09-07",59.00,44.60,20.00,0.00,0.00
"CA00112C991","1985-09-08",62.60,44.60,12.00,0.00,0.00
"CA00112C991","1985-09-09",55.40,44.60,20.00,0.00,0.00
"CA00112C991","1985-09-10",68.00,44.60,0.00,0.00,0.00
"CA00112C991","1985-09-11",64.40,45.50,72.00,0.00,0.00
"CA00112C991","1985-09-12",68.00,50.00,0.00,0.00,0.00
"CA00112C991","1985-09-13",65.30,42.80,0.00,0.00,0.00
"CA00112C991","1985-09-14",66.20,48.20,0.00,0.00,0.00
"CA00112C991","1985-09-15",68.00,39.20,16.00,0.00,0.00
"CA00112C991","1985-09-16",68.00,48.20,0.00,0.00,0.00
"CA00112C991","1985-09-17",60.80,44.60,30.00,0.00,0.00
"CA00112C991","1985-09-18",64.40,47.30,92.00,0.00,0.00
"CA00112C991","1985-09-19",60.80,36.50,0.00,0.00,0.00
"CA00112C991","1985-09-20",57.20,41.00,,0.00,0.00
"CA00112C991","1985-09-21",64.40,39.20,0.00,0.00,0.00
"CA00112C991","1985-09-22",63.50,31.10,0.00,0.00,0.00
"CA00112C991","1985-09-23",51.80,32.90,0.00,0.00,0.00
"CA00112C991","1985-09-24",69.80,41.00,0.00,0.00,0.00
"CA00112C991","1985-09-25",68.90,39.20,0.00,0.00,0.00
"CA00112C991","1985-09-26",66.20,42.80,0.00,0.00,0.00
"CA00112C991","1985-09-27",60.80,33.80,0.00,0.00,0.00
"CA00112C991","1985-09-28",59.00,30.20,0.00,0.00,0.00
"CA00112C991","1985-09-29",59.90,30.20,0.00,0.00,0.00
"CA00112C991","1985-09-30",53.60,32.00,28.00,0.00,0.00
"CA00112C991","1985-10-01",60.80,39.20,56.00,0.00,0.00
"CA00112C991","1985-10-02",68.00,42.80,22.00,0.00,0.00
"CA00112C991","1985-10-03",60.80,35.60,0.00,0.00,0.00
"CA00112C991","1985-10-04",57.20,31.10,0.00,0.00,0.00
"CA00112C991","1985-10-05",57.20,35.60,60.00,0.00,0.00
"CA00112C991","1985-10-06",48.20,44.60,40.00,0.00,0.00
"CA00112C991","1985-10-07",51.80,35.60,0.00,0.00,0.00
"CA00112C991","1985-10-08",51.80,26.60,0.00,0.00,0.00
"CA00112C991","1985-10-09",49.10,33.80,0.00,0.00,0.00
"CA00112C991","1985-10-10",51.80,39.20,26.00,0.00,0.00
"CA00112C991","1985-10-11",53.60,39.20,14.00,0.00,0.00
"CA00112C991","1985-10-12",59.00,33.80,0.00,0.00,0.00
"CA00112C991","1985-10-13",56.30,39.20,66.00,0.00,0.00
"CA00112C991","1985-10-14",59.00,44.60,0.00,0.00,0.00
"CA00112C991","1985-10-15",64.40,51.80,12.00,0.00,0.00
"CA00112C991","1985-10-16",57.20,46.40,0.00,0.00,0.00
"CA00112C991","1985-10-17",59.00,39.20,0.00,0.00,0.00
"CA00112C991","1985-10-18",55.40,39.20,0.00,0.00,0.00
"CA00112C991","1985-10-19",60.80,42.80,32.00,0.00,0.00
"CA00112C991","1985-10-20",53.60,41.00,0.00,0.00,0.00
"CA00112C991","1985-10-21",48.20,42.80,52.00,0.00,0.00
"CA00112C991","1985-10-22",55.40,37.40,12.00,0.00,0.00
"CA00112C991","1985-10-23",55.40,39.20,0.00,0.00,0.00
"CA00112C991","1985-10-24",44.60,39.20,38.00,0.00,0.00
"CA00112C991","1985-10-25",53.60,39.20,0.00,0.00,0.00
"CA00112C991","1985-10-26",44.60,34.70,48.00,0.00,0.00
"CA00112C991","1985-10-27",46.40,39.20,80.00,0.00,0.00
"CA00112C991","1985-10-28",53.60,39.20,0.00,0.00,0.00
"CA00112C991","1985-10-29",44.60,26.60,0.00,0.00,0.00
"CA00112C991","1985-10-30",44.60,32.90,0.00,0.00,0.00
"CA00112C991","1985-10-31",44.60,33.80,,,0.00
"CA00112C991","1985-11-01",41.00,32.00,0.00,0.00,0.00
"CA00112C991","1985-11-02",46.40,33.80,40.00,0.00,0.00
"CA00112C991","1985-11-03",50.00,39.20,10.00,0.00,0.00
"CA00112C991","1985-11-04",47.30,39.20,0.00,0.00,0.00
"CA00112C991","1985-11-05",41.00,32.00,0.00,0.00,0.00
"CA00112C991","1985-11-06",51.80,28.40,0.00,0.00,0.00
"CA00112C991","1985-11-07",42.80,32.90,62.00,62.00,0.00
"CA00112C991","1985-11-08",41.00,28.40,0.00,0.00,10.00
"CA00112C991","1985-11-09",39.20,29.30,0.00,0.00,0.00
"CA00112C991","1985-11-10",29.30,23.00,0.00,0.00,0.00
"CA00112C991","1985-11-11",21.20,14.00,0.00,0.00,0.00
"CA00112C991","1985-11-12",24.80,10.40,0.00,0.00,0.00
"CA00112C991","1985-11-13",33.80,10.40,0.00,0.00,0.00
"CA00112C991","1985-11-14",35.60,19.40,0.00,0.00,0.00
"CA00112C991","1985-11-15",35.60,26.60,0.00,0.00,0.00
"CA00112C991","1985-11-16",41.00,28.40,110.00,110.00,0.00
"CA00112C991","1985-11-17",33.80,30.20,4.00,4.00,110.00
"CA00112C991","1985-11-18",23.00,6.80,0.00,0.00,90.00
"CA00112C991","1985-11-19",17.60,0.50,2.00,2.00,90.00
"CA00112C991","1985-11-20",17.60,1.40,0.00,0.00,80.00
"CA00112C991","1985-11-21",14.00,-0.40,0.00,0.00,80.00
"CA00112C991","1985-11-22",8.60,-0.40,0.00,0.00,80.00
"CA00112C991","1985-11-23",8.60,-9.40,10.00,10.00,80.00
"CA00112C991","1985-11-24",14.00,5.00,2.00,2.00,90.00
"CA00112C991","1985-11-25",12.20,6.80,10.00,10.00,90.00
"CA00112C991","1985-11-26",-0.40,-2.20,10.00,10.00,100.00
"CA00112C991","1985-11-27",-5.80,-14.80,0.00,0.00,110.00
"CA00112C991","1985-11-28",-2.20,-18.40,0.00,0.00,110.00
"CA00112C991","1985-11-29",5.00,-16.60,10.00,10.00,110.00
"CA00112C991","1985-11-30",8.60,-4.00,0.00,0.00,120.00
"CA00112C991","1985-12-01",8.60,-7.60,8.00,8.00,130.00
"CA00112C991","1985-12-02",23.00,1.40,140.00,140.00,140.00
"CA00112C991","1985-12-03",28.40,10.40,0.00,0.00,250.00
"CA00112C991","1985-12-04",32.00,22.10,0.00,0.00,220.00
"CA00112C991","1985-12-05",33.80,23.00,0.00,0.00,180.00
"CA00112C991","1985-12-06",37.40,28.40,10.00,10.00,160.00
"CA00112C991","1985-12-07",37.40,28.40,100.00,100.00,170.00
"CA00112C991","1985-12-08",37.40,30.20,0.00,0.00,270.00
"CA00112C991","1985-12-09",30.20,26.60,0.00,0.00,250.00
"CA00112C991","1985-12-10",21.20,10.40,0.00,0.00,200.00
"CA00112C991","1985-12-11",24.80,17.60,10.00,10.00,200.00
"CA00112C991","1985-12-12",28.40,16.70,0.00,0.00,210.00
"CA00112C991","1985-12-13",24.80,12.20,0.00,0.00,190.00
"CA00112C991","1985-12-14",24.80,10.40,20.00,20.00,190.00
"CA00112C991","1985-12-15",28.40,14.00,0.00,0.00,210.00
"CA00112C991","1985-12-16",28.40,16.70,0.00,0.00,200.00
"CA00112C991","1985-12-17",32.00,19.40,0.00,0.00,190.00
"CA00112C991","1985-12-18",30.20,19.40,0.00,0.00,190.00
"CA00112C991","1985-12-19",32.00,23.00,0.00,0.00,190.00
"CA00112C991","1985-12-20",32.00,28.40,0.00,0.00,190.00
"CA00112C991","1985-12-21",32.00,28.40,0.00,0.00,190.00
"CA00112C991","1985-12-22",28.40,24.80,0.00,0.00,180.00
"CA00112C991","1985-12-23",28.40,23.00,0.00,0.00,180.00
"CA00112C991","1985-12-24",28.40,23.90,0.00,0.00,180.00
"CA00112C991","1985-12-25",28.40,23.00,0.00,0.00,170.00
"CA00112C991","1985-12-26",28.40,23.00,0.00,0.00,170.00
"CA00112C991","1985-12-27",24.80,19.40,0.00,0.00,170.00
"CA00112C991","1985-12-28",24.80,19.40,0.00,0.00,170.00
"CA00112C991","1985-12-29",26.60,19.40,4.00,4.00,170.00
"CA00112C991","1985-12-30",26.60,19.40,0.00,0.00,170.00
"CA00112C991","1985-12-31",24.80,19.40,30.00,30.00,170.00
"CA00112C991","1986-01-01",26.60,21.20,30.00,30.00,200.00
"CA00112C991","1986-01-02",26.60,14.00,40.00,40.00,220.00
"CA00112C991","1986-01-03",28.40,19.40,0.00,0.00,260.00
"CA00112C991","1986-01-04",28.40,15.80,40.00,40.00,260.00
"CA00112C991","1986-01-05",30.20,12.20,32.00,32.00,280.00
"CA00112C991","1986-01-06",39.20,22.10,0.00,0.00,310.00
"CA00112C991","1986-01-07",35.60,23.00,0.00,0.00,240.00
"CA00112C991","1986-01-08",42.80,22.10,0.00,0.00,200.00
"CA00112C991","1986-01-09",39.20,24.80,0.00,0.00,200.00
"CA00112C991","1986-01-10",44.60,33.80,0.00,0.00,200.00
"CA00112C991","1986-01-11",43.70,33.80,0.00,0.00,190.00
"CA00112C991","1986-01-12",26.60,23.00,0.00,0.00,190.00
"CA00112C991","1986-01-13",28.40,21.20,0.00,0.00,190.00
"CA00112C991","1986-01-14",33.80,23.00,0.00,0.00,190.00
"CA00112C991","1986-01-15",33.80,23.00,20.00,20.00,190.00
"CA00112C991","1986-01-16",37.40,25.70,0.00,0.00,210.00
"CA00112C991","1986-01-17",44.60,28.40,50.00,0.00,210.00
"CA00112C991","1986-01-18",39.20,32.00,78.00,0.00,210.00
"CA00112C991","1986-01-19",46.40,35.60,0.00,0.00,170.00
"CA00112C991","1986-01-20",44.60,28.40,0.00,0.00,170.00
"CA00112C991","1986-01-21",37.40,24.80,0.00,0.00,150.00
"CA00112C991","1986-01-22",34.70,24.80,32.00,32.00,150.00
"CA00112C991","1986-01-23",33.80,26.60,0.00,0.00,180.00
"CA00112C991","1986-01-24",37.40,24.80,0.00,0.00,180.00
"CA00112C991","1986-01-25",28.40,21.20,0.00,0.00,180.00
"CA00112C991","1986-01-26",30.20,21.20,0.00,0.00,180.00
"CA00112C991","1986-01-27",39.20,21.20,0.00,0.00,180.00
"CA00112C991","1986-01-28",42.80,23.00,32.00,10.00,180.00
"CA00112C991","1986-01-29",37.40,28.40,80.00,40.00,180.00
"CA00112C991","1986-01-30",35.60,30.20,48.00,20.00,220.00
"CA00112C991","1986-01-31",42.80,32.00,0.00,0.00,200.00
"CA00112C991","1986-02-01",44.60,26.60,0.00,0.00,180.00
"CA00112C991","1986-02-02",42.80,32.00,0.00,0.00,180.00
"CA00112C991","1986-02-03",37.40,28.40,0.00,0.00,180.00
"CA00112C991","1986-02-04",37.40,32.00,30.00,30.00,180.00